DRAGON CRS-27

Last updated on Sun Apr 16 2023 00:02:07 GMT+0000 (Coordinated Universal Time)

1 55860U 23033A 23104.82033559 .00015317 00000+0 27769-3 0 9990 2 55860 51.6390 282.5550 0006227 192.8403 202.6525 15.49795573391966

Satellite not in orbit

DRAGON CRS-27